Search the data

BODC Cruise Metadata Report for FRV Scotia (748S) cruise 1010S

Introduction

This report collates information from the BODC cruise inventory and oceanographic databases. It presents

Cruise Inventory Information

Long name FRV Scotia (748S) cruise 1010S
Short name 1010S
Objectives and Narrative Objectives

1. To undertake internationally co-ordinated demersal trawling of the North Sea.
2. Obtain temperature and salinity profiles at each trawling station.
3. Obtain (22*25 litres) low nutrient seawater from statistical rectangle 45F1.
4. Collect a wide range of biological samples for internally and externally interested parties

Trawling

One haul of 30 minutes duration will be made in each statistical rectangle shown on the attached chart. Daily start times should take into account the request from WGIBTS to vary the shooting time for the first haul of the day. The Scanmar system will be used to monitor headline height, wingspread, door spread and distance covered during each haul. A bottom contact sensor (BCS) will be attached to the ground-gear and the data collected will be downloaded after each haul.

Fish will be worked up according to standing instructions with additional biological data collected for species as determined in EU Data Regulation 1639/2001 and 1581/2004.

Hydrography

Surface and bottom temperatures, salinities, nitrates, silicates and phosphates will be taken at all trawl stations. The ships thermosalinograph will be run continuously throughout the cruise.

General

Normal contacts will be maintained with the Laboratory. Information gathered by the participating vessels will be exchanged by fax/e-mail.
Ship FRV Scotia
Departure Port Aberdeen, United Kingdom
Departure Date 2010-08-14
Arrival Port Aberdeen, United Kingdom
Arrival Date 2010-09-06
Principal Scientist(s) Iain M Penny (Marine Scotland Aberdeen Marine Laboratory)
Responsible Organisation National Science Foundation
Associated Project(s) RV1012
IHB Sea Areas Visited North Sea
Marsden Squares Visited 181/216/217
Work Area Description Northern North Sea
Work Area Bounding Polygon 50N,10W; 70N,10W; 70N,10E; 50N,10E; 50N,10W
Southern Limit 50N
Northern Limit 70N
Western Limit 10W
Eastern Limit 10E

Cruise Inventory Datasets

No information on datasets is currently available for this cruise

Cruise Inventory Mooring/Buoy Operations

No information on datasets is currently available

Summary of BODC Data Holdings for the Cruise

National Oceanographic Database

Summary

# Series Instrument Description Parameters
88 CTD/STD cast Chlorophyll pigment concentrations in water bodies
Concentration of suspended particulate material in the water column
Density of the water column
Electrical conductivity of the water column
Reference numbers
Salinity of the water column
Temperature of the water column
Vertical spatial coordinates

Note: Parameter terms are taken from the BODC Parameter Discovery Vocabulary XML (SKOS)

Full List

BODC Reference Instrument Description Date/Time Location  
1143730 CTD/STD cast 2010-08-14 09:29Z 57° 5' N, 1° 51' W Click for more
1143742 CTD/STD cast 2010-08-14 13:00Z 56° 46' N, 2° 14' W Click for more
1143754 CTD/STD cast 2010-08-14 18:44Z 56° 36' N, 1° 16' W Click for more
1143766 CTD/STD cast 2010-08-15 04:27Z 56° 17' N, 0° 52' W Click for more
1143778 CTD/STD cast 2010-08-15 08:22Z 56° 25' N, 1° 45' W Click for more
1143791 CTD/STD cast 2010-08-15 10:54Z 56° 16' N, 2° 4' W Click for more
1143809 CTD/STD cast 2010-08-15 15:13Z 55° 58' N, 1° 31' W Click for more
1143810 CTD/STD cast 2010-08-15 20:34Z 55° 54' N, 0° 19' W Click for more
1143822 CTD/STD cast 2010-08-16 04:28Z 55° 46' N, 0° 15' E Click for more
1143834 CTD/STD cast 2010-08-16 08:21Z 55° 21' N, 0° 40' E Click for more
1143846 CTD/STD cast 2010-08-16 12:13Z 55° 3' N, 0° 6' W Click for more
1143858 CTD/STD cast 2010-08-16 14:49Z 54° 50' N, 0° 18' W Click for more
1143871 CTD/STD cast 2010-08-16 18:58Z 54° 48' N, 0° 24' E Click for more
1143883 CTD/STD cast 2010-08-17 04:29Z 54° 23' N, 0° 38' E Click for more
1143895 CTD/STD cast 2010-08-17 07:19Z 54° 24' N, 1° 10' E Click for more
1143902 CTD/STD cast 2010-08-17 11:08Z 54° 49' N, 1° 15' E Click for more
1143914 CTD/STD cast 2010-08-17 18:47Z 54° 19' N, 2° 44' E Click for more
1143926 CTD/STD cast 2010-08-18 04:25Z 54° 46' N, 2° 34' E Click for more
1143938 CTD/STD cast 2010-08-18 09:05Z 55° 13' N, 2° 39' E Click for more
1143951 CTD/STD cast 2010-08-18 13:19Z 55° 16' N, 1° 38' E Click for more
1143963 CTD/STD cast 2010-08-18 15:52Z 55° 33' N, 1° 40' E Click for more
1143975 CTD/STD cast 2010-08-18 19:37Z 55° 40' N, 2° 15' E Click for more
1143987 CTD/STD cast 2010-08-19 04:31Z 56° 14' N, 4° 32' E Click for more
1143999 CTD/STD cast 2010-08-19 09:46Z 56° 6' N, 5° 49' E Click for more
1144002 CTD/STD cast 2010-08-19 13:07Z 56° 10' N, 6° 29' E Click for more
1144014 CTD/STD cast 2010-08-19 17:40Z 56° 8' N, 7° 21' E Click for more
1144026 CTD/STD cast 2010-08-20 04:28Z 57° 15' N, 5° 13' E Click for more
1144038 CTD/STD cast 2010-08-20 08:04Z 57° 9' N, 4° 28' E Click for more
1144051 CTD/STD cast 2010-08-20 11:39Z 56° 45' N, 4° 7' E Click for more
1144063 CTD/STD cast 2010-08-20 14:17Z 56° 43' N, 3° 36' E Click for more
1144075 CTD/STD cast 2010-08-20 19:09Z 56° 16' N, 3° 40' E Click for more
1144087 CTD/STD cast 2010-08-21 04:27Z 56° 6' N, 2° 22' E Click for more
1144099 CTD/STD cast 2010-08-21 09:04Z 56° 46' N, 2° 30' E Click for more
1144106 CTD/STD cast 2010-08-21 14:29Z 56° 34' N, 1° 15' E Click for more
1144118 CTD/STD cast 2010-08-21 18:06Z 56° 16' N, 1° 25' E Click for more
1144131 CTD/STD cast 2010-08-22 04:26Z 56° 25' N, 0° 12' E Click for more
1144143 CTD/STD cast 2010-08-22 07:48Z 56° 46' N, 0° 26' E Click for more
1144155 CTD/STD cast 2010-08-22 11:05Z 56° 46' N, 0° 13' W Click for more
1144167 CTD/STD cast 2010-08-22 14:58Z 57° 9' N, 0° 11' E Click for more
1144179 CTD/STD cast 2010-08-22 20:24Z 57° 17' N, 0° 46' W Click for more
1144180 CTD/STD cast 2010-08-23 04:30Z 57° 51' N, 2° 36' W Click for more
1144192 CTD/STD cast 2010-08-23 07:55Z 57° 52' N, 3° 20' W Click for more
1144211 CTD/STD cast 2010-08-23 11:00Z 58° 9' N, 3° 6' W Click for more
1144223 CTD/STD cast 2010-08-23 13:19Z 58° 19' N, 2° 45' W Click for more
1144235 CTD/STD cast 2010-08-23 18:09Z 58° 52' N, 2° 21' W Click for more
1144247 CTD/STD cast 2010-08-24 04:27Z 57° 30' N, 1° 20' W Click for more
1144259 CTD/STD cast 2010-08-24 08:19Z 57° 46' N, 0° 54' W Click for more
1144260 CTD/STD cast 2010-08-24 11:28Z 58° 4' N, 1° 9' W Click for more
1144272 CTD/STD cast 2010-08-24 18:03Z 58° 10' N, 0° 1' W Click for more
1144284 CTD/STD cast 2010-08-25 04:29Z 58° 19' N, 0° 30' E Click for more
1144296 CTD/STD cast 2010-08-25 09:02Z 57° 52' N, 0° 42' E Click for more
1144303 CTD/STD cast 2010-08-25 12:30Z 57° 41' N, 1° 15' E Click for more
1144315 CTD/STD cast 2010-08-25 17:37Z 57° 39' N, 2° 10' E Click for more
1144327 CTD/STD cast 2010-08-26 04:29Z 58° 45' N, 1° 9' E Click for more
1144339 CTD/STD cast 2010-08-26 09:56Z 58° 42' N, 2° 34' E Click for more
1144340 CTD/STD cast 2010-08-26 14:20Z 58° 52' N, 3° 25' E Click for more
1144352 CTD/STD cast 2010-08-28 17:50Z 59° 37' N, 3° 13' E Click for more
1144364 CTD/STD cast 2010-08-29 04:28Z 59° 40' N, 2° 22' E Click for more
1144376 CTD/STD cast 2010-08-29 08:21Z 59° 43' N, 1° 30' E Click for more
1144388 CTD/STD cast 2010-08-29 12:57Z 59° 45' N, 0° 20' E Click for more
1144407 CTD/STD cast 2010-08-29 17:05Z 59° 42' N, 0° 15' W Click for more
1144419 CTD/STD cast 2010-08-30 04:53Z 60° 29' N, 2° 0' E Click for more
1144420 CTD/STD cast 2010-08-30 09:10Z 60° 42' N, 1° 10' E Click for more
1144432 CTD/STD cast 2010-08-30 12:14Z 60° 52' N, 0° 35' E Click for more
1144444 CTD/STD cast 2010-08-30 18:19Z 60° 45' N, 0° 36' W Click for more
1144456 CTD/STD cast 2010-08-31 04:27Z 61° 10' N, 0° 40' W Click for more
1144468 CTD/STD cast 2010-08-31 07:16Z 61° 4' N, 1° 7' W Click for more
1144481 CTD/STD cast 2010-08-31 11:06Z 60° 55' N, 1° 51' W Click for more
1144493 CTD/STD cast 2010-08-31 14:19Z 60° 36' N, 2° 15' W Click for more
1144500 CTD/STD cast 2010-08-31 18:15Z 60° 20' N, 2° 40' W Click for more
1144512 CTD/STD cast 2010-09-01 04:30Z 59° 47' N, 2° 33' W Click for more
1144524 CTD/STD cast 2010-09-01 08:50Z 60° 1' N, 1° 34' W Click for more
1144536 CTD/STD cast 2010-09-01 10:19Z 59° 58' N, 1° 30' W Click for more
1144548 CTD/STD cast 2010-09-01 17:05Z 60° 8' N, 0° 16' W Click for more
1144561 CTD/STD cast 2010-09-02 04:27Z 58° 53' N, 0° 21' E Click for more
1144573 CTD/STD cast 2010-09-02 09:13Z 58° 52' N, 0° 36' W Click for more
1144585 CTD/STD cast 2010-09-02 11:28Z 59° 3' N, 0° 48' W Click for more
1144597 CTD/STD cast 2010-09-02 14:45Z 59° 14' N, 1° 30' W Click for more
1144604 CTD/STD cast 2010-09-02 19:17Z 59° 9' N, 2° 19' W Click for more
1144616 CTD/STD cast 2010-09-03 04:30Z 58° 49' N, 3° 46' W Click for more
1144628 CTD/STD cast 2010-09-03 07:53Z 59° 13' N, 3° 30' W Click for more
1144641 CTD/STD cast 2010-09-03 13:10Z 59° 57' N, 3° 55' W Click for more
1144653 CTD/STD cast 2010-09-03 18:06Z 60° 0' N, 3° 22' W Click for more
1144665 CTD/STD cast 2010-09-04 04:27Z 58° 45' N, 1° 41' W Click for more
1144677 CTD/STD cast 2010-09-04 08:35Z 58° 54' N, 0° 40' W Click for more
1144689 CTD/STD cast 2010-09-04 12:40Z 58° 52' N, 0° 21' E Click for more
1144690 CTD/STD cast 2010-09-04 17:36Z 58° 45' N, 1° 8' E Click for more
1144708 CTD/STD cast 2010-09-05 05:26Z 57° 49' N, 0° 53' W Click for more

Project Database

No data currently held for this cruise in the BODC Project Database

References

Track Charts

Track Chart

Reports

No reports currently available